Regional Weather Roundup
Issued by NWS Jackson, KY

Home | Current Version | Previous Version | Graphics & Text | Print | Product List | Glossary On
Versions: 1 2 3 4 5 6 7 8 9 10 11 12 13 14 15 16 17 18 19 20 21 22 23 24 25 26 27 28 29 30 31 32 33 34 35 36 37 38 39 40 41 42 43 44 45 46 47 48 49 50
000
ASUS43 KJKL 031310
RWRJKL

EAST KENTUCKY HOURLY WEATHER ROUNDUP
NATIONAL WEATHER SERVICE JACKSON KY
900 AM EDT THU SEP 03 2015

NOTE: "FAIR" INDICATES FEW OR NO CLOUDS BELOW 12,000 FEET WITH
NO SIGNIFICANT WEATHER AND/OR OBSTRUCTIONS TO VISIBILITY.

* THESE REPORTS ARE NOT UNDER NWS QUALITY CONTROL AND MAY NOT
  REPORT WEATHER SUCH AS PRECIPITATION AND FOG.

KYZ079-080-083-085-087-088-110-112-115-119-120-031400
...EASTERN KENTUCKY...

CITY           SKY/WX    TMP DP  RH WIND       PRES   REMARKS
JACKSON        SUNNY     73  67  81 CALM      30.09R
LONDON         SUNNY     69  65  86 CALM      30.09R
SOMERSET*      CLOUDY    66  66 100 CALM      30.09S FOG
MONTICELLO*    MOSUNNY   72  69  90 CALM      30.10R
WILLIAMSBURG*  CLOUDY    63  63 100 CALM      30.09R
MIDDLESBORO*   CLOUDY    66  66 100 CALM      30.09S FOG
HARLAN APT*      N/A     64  64 100 MISG      30.11R VSB 1/2
HAZARD APT*    SUNNY     68  68 100 CALM      30.09R
BLACK MTN*       N/A     68  63  83 VRB6        N/A
PIKEVILLE APT* CLOUDY    66  66 100 CALM      30.09R FOG
BIG SANDY*     CLOUDY    69  68  97 CALM      30.08R FOG
MOREHEAD APT*  SUNNY     70  68  94 CALM      30.09S FOG
$$

KYZ035-036-041-042-044-050-067-078-099-031400
...CENTRAL KENTUCKY...

CITY           SKY/WX    TMP DP  RH WIND       PRES   REMARKS
MT STERLING*   SUNNY     72  70  94 CALM      30.09R
FLEMING/MASON* SUNNY     72  68  88 CALM      30.08R
DANVILLE*      SUNNY     70  66  88 CALM      30.09R
RICHMOND*      SUNNY     70  66  88 CALM      30.08R
LEXINGTON      SUNNY     73  68  84 CALM      30.07S HAZE
FRANKFORT      SUNNY     73  68  84 CALM      30.05S HAZE
$$

KYZ091>093-OHZ055-061-077-WVZ005-015-034-035-042-031400
...SOUTHERN OHIO/WEST VIRGINIA...

CITY           SKY/WX    TMP DP  RH WIND       PRES   REMARKS
COVINGTON      MOSUNNY   73  70  90 CALM      30.06R
COLUMBUS       PTSUNNY   73  67  81 CALM      30.03S
DAYTON         MOSUNNY   74  69  85 CALM      30.06R
WILMINGTON     MOSUNNY   70  66  87 CALM      30.05S FOG
HUNTINGTON     SUNNY     70  69  97 CALM      30.05R FOG
CHARLESTON     PTSUNNY   68  67  96 CALM      30.05R
PINEVILLE*     CLOUDY    65  65 100 MISG      30.14S FOG
BECKLEY        SUNNY     70  64  81 SW3       30.12S
BLUEFIELD      SUNNY     69  63  81 W6        30.14S
$$

VAZ002-007-008-TNZ017-027-036-066-071-031400
...SOUTHWEST VIRGINIA/EAST TENNESSEE...

CITY           SKY/WX    TMP DP  RH WIND       PRES   REMARKS
WISE*          SUNNY     70  66  88 CALM      30.16R
JONESVILLE*    SUNNY     66  64  94 CALM      30.11S
ABINGDON*      MOSUNNY   71  65  82 CALM      30.11R
BRISTOL        MOSUNNY   69  66  90 CALM      30.09R
KNOXVILLE      CLOUDY    74  68  81 CALM      30.04S
OAK RIDGE      PTSUNNY   73  68  84 CALM      30.07R
CROSSVILLE     PTSUNNY   73  67  81 CALM      30.11R
NASHVILLE      MOSUNNY   78  71  79 CALM      30.05R
$$

...KEY TO REMARKS...
VSB - VISIBILITY IN MILES
WCI - WIND CHILL INDEX
HX  - HEAT INDEX

$$



USA.gov is the U.S. government's official web portal to all federal, state and local government web resources and services.